Starlink 32268

operational
NORAD ID: 60372 Int'l Des: 2024-138 Owner: SPXS Country: US Constellation: starlink
LEOCIRCULAR

Starlink 32268について

説明を読み込み中...

リアルタイム位置

3D地球を読み込み中...

次回通過

高度履歴

Altitude vs Time

uPlot chart will show altitude changes over time

軌道要素

1 60372U 24138T 25353.94161488 .00002559 00000-0 98436-4 0 9990
2 60372 53.1626 320.3191 0001056 267.5973 92.4907 15.30215503 78419
Epoch: Dec 19, 2025 • Age: 9 hours

現在のステータス

高度 476.2 km
速度 7.63 km/s
衛星直下点 -0.90°S, 58.17°W
打ち上げ日 Aug 4, 2024
運用期間 1.3 years
タイプ internet

技術仕様

分類 Payload
質量 730.00 kg
乾燥質量 700.00 kg
総質量 730.00 kg
長さ 0.30 m
直径 4.10 m
スパン 29.00 m
形状 Box + pan
製造者 SPXS
バスタイプ Starlink V2M
フェーズステータス In Orbit
所有者/国 SPXS/US

大規模コンステレーション

Loading constellations...